Regional Weather Roundup
Issued by NWS Raleigh/Durham, NC

Home | Current Version | Previous Version | Text Only | Print | Product List | Glossary On
Versions: 1 2 3 4 5 6 7 8 9 10 11 12 13 14 15 16 17 18 19 20 21 22 23 24 25 26 27
000
ASUS42 KRAH 131010
RWRRAH
NORTH CAROLINA WEATHER ROUNDUP
NATIONAL WEATHER SERVICE RALEIGH NC
500 AM EST WED DEC 13 2017

NOTE: "FAIR" INDICATES FEW OR NO CLOUDS BELOW 12,000 FEET WITH NO
SIGNIFICANT WEATHER AND/OR OBSTRUCTIONS TO VISIBILITY.

NCZ001-053-055-056-065-067-131100-
WESTERN NORTH CAROLINA

CITY           SKY/WX    TMP DP  RH WIND       PRES   REMARKS
ASHEVILLE      CLEAR     22   5  48 N12       29.87S WCI  10
JEFFERSON      CLEAR     15  -1  48 NW25G40   29.70S WCI  -4
MORGANTON      CLEAR     22  10  61 E3        29.91R
HICKORY        CLEAR     27   1  32 W5        29.88R WCI  22
RUTHERFORDTON  NOT AVBL
MOUNT AIRY     CLEAR     26   2  36 W7        29.87  WCI  18
BOONE          CLOUDY    16   1  51 NW29G49   29.68R WCI  -4
$$

NCZ021-022-025-041-071-084-088-131100-
CENTRAL NORTH CAROLINA

CITY           SKY/WX    TMP DP  RH WIND       PRES   REMARKS
CHARLOTTE      CLEAR     28   3  34 NW6       29.92R WCI  22
GREENSBORO     CLEAR     22   7  52 W8        29.87R WCI  12
WINSTON-SALEM  CLEAR     26   3  37 NW6       29.89R WCI  19
RALEIGH-DURHAM CLEAR     25  11  55 CALM      29.91R
FORT BRAGG     CLEAR     27  11  50 NW5       29.92S WCI  22
FAYETTEVILLE   CLEAR     28  14  55 W5        29.93R WCI  23
BURLINGTON     CLEAR     24  10  55 W6        29.89R WCI  17
LAURINBURG     CLEAR     26  17  68 CALM      29.94R
$$

NCZ011-015-027-028-043-044-047-080-103-131100-
NORTHEASTERN NORTH CAROLINA

CITY           SKY/WX    TMP DP  RH WIND       PRES   REMARKS
ROCKY MT-WILSO CLEAR     28   9  44 W9        29.90R WCI  19
GREENVILLE     CLEAR     30  10  43 NW6       29.92R WCI  24
WASHINGTON     CLEAR     29  10  45 NW7       29.90R WCI  21
ELIZABETH CITY CLEAR     25   8  48 W7        29.85R WCI  17
MANTEO         PTCLDY    29  10  44 N14G23    29.84R WCI  19
CAPE HATTERAS  CLEAR     32  12  43 NW18G32   29.85R WCI  20
$$

NCZ078-087-090-091-093-098-101-131100-
SOUTHEASTERN NORTH CAROLINA

CITY           SKY/WX    TMP DP  RH WIND       PRES   REMARKS
LUMBERTON      CLEAR     28  14  55 W3        29.94R
GOLDSBORO      CLEAR     28  12  50 W5        29.90R WCI  23
KINSTON        CLEAR     29  12  49 NW6       29.92R WCI  22
KENANSVILLE    CLEAR     28  12  50 W3        29.92R
NEW BERN       CLEAR     28  13  53 NW9       29.92R WCI  19
CHERRY POINT   CLEAR     30  12  47 NW13      29.92R WCI  20
BEAUFORT       CLEAR     32  15  49 NW22G30   29.91R WCI  19
JACKSONVILLE   CLEAR     29  17  61 NW10      29.92R WCI  20
WILMINGTON     CLEAR     31  15  52 NW8       29.93R WCI  23
$$





USA.gov is the U.S. government's official web portal to all federal, state and local government web resources and services.